Location: Bessat
(45.8735°N, 1.9924°E)
Time: 20:21:23
(UTC+00:00)

Cosmos 1328 Rocket - Pass Details

Date: 11 May 2021
Orbit: 600 x 627 km, 82.5° (Epoch: 20 June)

Event Time Altitude Azimuth Distance (km) Brightness Sun altitude
Exits shadow 20:44:40 - 186° (S) 2,135 5.9 -13.7°
Reaches altitude 10° 20:45:01 10° 186° (S) 1,996 5.8 -13.8°
Maximum altitude 20:49:27 87° 102° (ESE) 632 3.5 -14.3°
Drops below altitude 10° 20:53:54 10° 10° (N) 2,000 6.7 -14.8°
Sets 20:56:08 0° 10° (N) 2,907 7.6 -15.1°
